User: anonymous   Login
Location: Unspecified
(0.0000°N, 0.0000°E)
Time: 23:18:48
(UTC+00:00)
Language:

Cosmos 2499 - Orbit

View from above orbital plane
View from above orbital plane
View from above satellite
View from above satellite

Ground track
Ground track

The orbit data is extracted from the following two-line orbital elements,

1 39765U 14028E   17141.72988145 +.00000357 +00000-0 +13019-2 0  9994
2 39765 082.4377 329.9151 0229066 221.1761 137.1993 12.83425445140341
Epoch (UTC): 21 May 2017 17:31:01
Eccentricity: 0.0229066
inclination: 82.4377°
perigee height: 1151 km
apogee height: 1504 km
right ascension of ascending node: 329.9151°
argument of perigee: 221.1761°
revolutions per day: 12.83425445
mean anomaly at epoch: 137.1993°
orbit number at epoch: 14034

The dashed part of the orbit path shows where the satellite is in the earth's shadow,  

DLR